Home   Weather   Majuro   Past weeks

Flag for Marshall Islands Past Weather in Majuro, Marshall Islands — Yesterday and Last 2 Weeks

85 °F


Feels Like: 97 °F
Forecast: 81 / 87 °F
Wind: 9 mph from Southeast

Location: Majuro Atoll

Current Time: Oct 22, 2016 at 2:02:25 PM

Latest Report: Oct 22, 2016 at 12:52 PM

Visibility: 15 mi

Pressure: 29.79 "Hg

Humidity: 81%

Dew Point: 78 °F

Location of MajuroLocation

Past Weather in Majuro — Graph


Majuro Temperature Yesterday

Maximum temperature yesterday: 88 °F (at 2:51 PM)
Minimum temperature yesterday: 83 °F (at 1:54 AM)
Average temperature yesterday: 85 °F

High & Low Weather Summary for the Past Weeks

High93 °F (Oct 16, 11:50 AM)93% (Oct 12, 6:52 PM)29.90 "Hg (Oct 12, 6:52 PM)
Low79 °F (Oct 20, 2:51 AM)61% (Oct 19, 11:50 AM)29.69 "Hg (Oct 11, 2:54 PM)
Average85 °F81%29.79 "Hg
* Reported Oct 7 11:50 AM — Oct 22 11:53 AM, Majuro, Weather by CustomWeather, © 2016

Note: Actual official high and low records may vary slightly from our data, if they occured in-between our weather recording intervals... More about our weather records


Majuro Weather History for the Previous 24 Hours

Scroll right to see more
Time TempWeatherWind HumidityBarometerVisibility
11:53 AM
Sat, Oct 22
83 °FCloudy.8 mph84%29.81 "Hg15 mi
10:50 AM88 °FCloudy.9 mph75%29.83 "Hg15 mi
9:53 AM86 °FBroken clouds.5 mph80%29.84 "Hg15 mi
8:53 AM84 °FCloudy.8 mph83%29.83 "Hg15 mi
7:52 AM86 °FBroken clouds.7 mph79%29.82 "Hg15 mi
6:50 AM83 °FPartly cloudy.5 mph85%29.80 "Hg15 mi
5:54 AM83 °FPartly cloudy.5 mph85%29.79 "Hg15 mi
4:52 AM82 °FPartly cloudy.6 mph86%29.78 "Hg15 mi
3:52 AM84 °FPartly cloudy.8 mph81%29.78 "Hg15 mi
2:53 AM84 °FPartly cloudy.7 mph82%29.77 "Hg15 mi
1:50 AM84 °FPartly cloudy.6 mph80%29.78 "Hg15 mi
12:52 AM84 °FPartly cloudy.6 mph81%29.80 "Hg15 mi
11:52 PM
Fri, Oct 21
84 °FPassing clouds.6 mph79%29.80 "Hg15 mi
10:50 PM84 °FPassing clouds.6 mph79%29.82 "Hg15 mi
9:53 PM84 °FPartly cloudy.7 mph79%29.82 "Hg15 mi
8:54 PM85 °FPartly cloudy.8 mph78%29.82 "Hg15 mi
7:51 PM85 °FPartly cloudy.7 mph78%29.80 "Hg15 mi
6:53 PM85 °FBroken clouds.6 mph77%29.78 "Hg15 mi
5:52 PM85 °FBroken clouds.8 mph74%29.77 "Hg15 mi
4:52 PM87 °FBroken clouds.8 mph76%29.75 "Hg15 mi
3:51 PM87 °FBroken clouds.8 mph79%29.75 "Hg15 mi
2:51 PM88 °FBroken clouds.10 mph75%29.74 "Hg15 mi
Weather by CustomWeather, © 2016

See weather overviewHow to use our weather pages